| time (UTC) | temp F | wind direction | speed MPH | gust MPH | rain 1hr in | rain 24hr in | rain mn in | humidity % | barometer mb |
| 20260509172725 | 54 | 317 | 7.0 | 14.0 | 0.00 | 0.00 | 0.00 | 38 | 1020.1 |
| 20260509171825 | 55 | 316 | 7.0 | 11.0 | 0.00 | 0.00 | 0.00 | 37 | 1020.2 |
| 20260509170904 | 55 | 319 | 7.0 | 11.0 | 0.00 | 0.00 | 0.00 | 38 | 1020.2 |
| 20260509170025 | 55 | 314 | 7.0 | 11.0 | 0.00 | 0.00 | 0.00 | 38 | 1020.2 |
| 20260509165404 | 55 | 306 | 7.0 | 13.0 | 0.00 | 0.00 | 0.00 | 39 | 1020.2 |
| 20260509164504 | 56 | 308 | 5.0 | 12.0 | 0.00 | 0.00 | 0.00 | 39 | 1020.2 |
| 20260509163604 | 56 | 317 | 6.0 | 11.0 | 0.00 | 0.00 | 0.00 | 39 | 1020.2 |
| 20260509162704 | 58 | 289 | 5.0 | 10.0 | 0.00 | 0.00 | 0.00 | 36 | 1020.3 |
| 20260509161804 | 59 | 159 | 6.0 | 11.0 | 0.00 | 0.00 | 0.00 | 36 | 1020.1 |
| 20260509160904 | 60 | 172 | 5.0 | 15.0 | 0.00 | 0.00 | 0.00 | 36 | 1020.2 |
| 20260509160004 | 61 | 174 | 6.0 | 14.0 | 0.00 | 0.00 | 0.00 | 34 | 1020.3 |
| 20260509155404 | 61 | 169 | 6.0 | 14.0 | 0.00 | 0.00 | 0.00 | 34 | 1020.3 |
| 20260509154504 | 62 | 174 | 4.0 | 14.0 | 0.00 | 0.00 | 0.00 | 34 | 1020.5 |
| 20260509153625 | 61 | 170 | 5.0 | 14.0 | 0.00 | 0.00 | 0.00 | 34 | 1020.5 |
| 20260509152725 | 61 | 157 | 5.0 | 14.0 | 0.00 | 0.00 | 0.00 | 36 | 1020.6 |
| 20260509151804 | 60 | 171 | 4.0 | 8.0 | 0.00 | 0.00 | 0.00 | 38 | 1020.8 |
| 20260509150903 | 59 | 172 | 5.0 | 10.0 | 0.00 | 0.00 | 0.00 | 37 | 1021.0 |
| 20260509150004 | 60 | 174 | 3.0 | 10.0 | 0.00 | 0.00 | 0.00 | 37 | 1021.1 |
| 20260509145404 | 60 | 218 | 2.0 | 4.0 | 0.00 | 0.00 | 0.00 | 37 | 1021.1 |
| 20260509144503 | 60 | 172 | 2.0 | 6.0 | 0.00 | 0.00 | 0.00 | 35 | 1021.2 |
| 20260509143625 | 60 | 176 | 4.0 | 10.0 | 0.00 | 0.00 | 0.00 | 34 | 1021.4 |
| 20260509142703 | 60 | 149 | 2.0 | 6.0 | 0.00 | 0.00 | 0.00 | 38 | 1021.4 |
| 20260509141804 | 59 | 139 | 3.0 | 5.0 | 0.00 | 0.00 | 0.00 | 37 | 1021.5 |
| 20260509140904 | 60 | 140 | 5.0 | 10.0 | 0.00 | 0.00 | 0.00 | 36 | 1021.7 |
| 20260509140005 | 60 | 154 | 5.0 | 12.0 | 0.00 | 0.00 | 0.00 | 35 | 1021.8 |
| 20260509135403 | 60 | 169 | 6.0 | 9.0 | 0.00 | 0.00 | 0.00 | 35 | 1022.0 |
| 20260509134504 | 61 | 170 | 5.0 | 10.0 | 0.00 | 0.00 | 0.00 | 35 | 1022.0 |
| 20260509133603 | 60 | 235 | 3.0 | 7.0 | 0.00 | 0.00 | 0.00 | 35 | 1022.3 |
| 20260509132704 | 60 | 184 | 3.0 | 11.0 | 0.00 | 0.00 | 0.00 | 34 | 1022.4 |
| 20260509131803 | 60 | 183 | 4.0 | 11.0 | 0.00 | 0.00 | 0.00 | 35 | 1022.5 |
| 20260509130904 | 60 | 175 | 6.0 | 14.0 | 0.00 | 0.00 | 0.00 | 34 | 1022.6 |
| 20260509130004 | 60 | 163 | 7.0 | 14.0 | 0.00 | 0.00 | 0.00 | 34 | 1022.8 |
| 20260509125404 | 60 | 170 | 6.0 | 14.0 | 0.00 | 0.00 | 0.00 | 35 | 1022.8 |
| 20260509124525 | 60 | 253 | 4.0 | 11.0 | 0.00 | 0.00 | 0.00 | 35 | 1022.8 |
| 20260509123603 | 60 | 229 | 4.0 | 11.0 | 0.00 | 0.00 | 0.00 | 34 | 1023.0 |
| 20260509122704 | 60 | 186 | 4.0 | 11.0 | 0.00 | 0.00 | 0.00 | 35 | 1023.1 |
| 20260509121804 | 59 | 169 | 5.0 | 12.0 | 0.00 | 0.00 | 0.00 | 35 | 1023.3 |
| 20260509120924 | 59 | 244 | 3.0 | 10.0 | 0.00 | 0.00 | 0.00 | 37 | 1023.4 |
| 20260509120025 | 59 | 201 | 4.0 | 10.0 | 0.00 | 0.00 | 0.00 | 36 | 1023.5 |
| 20260509115403 | 59 | 177 | 4.0 | 10.0 | 0.00 | 0.00 | 0.00 | 36 | 1023.5 |
| 20260509114525 | 59 | 201 | 3.0 | 9.0 | 0.00 | 0.00 | 0.00 | 36 | 1023.5 |
| 20260509113604 | 59 | 176 | 4.0 | 9.0 | 0.00 | 0.00 | 0.00 | 36 | 1023.6 |
| 20260509112704 | 59 | 191 | 4.0 | 8.0 | 0.00 | 0.00 | 0.00 | 35 | 1023.7 |
| 20260509111803 | 59 | 177 | 5.0 | 12.0 | 0.00 | 0.00 | 0.00 | 34 | 1023.8 |
| 20260509110903 | 59 | 174 | 3.0 | 10.0 | 0.00 | 0.00 | 0.00 | 37 | 1023.7 |
| 20260509110004 | 59 | 179 | 4.0 | 9.0 | 0.00 | 0.00 | 0.00 | 36 | 1023.8 |
| 20260509105404 | 58 | 202 | 3.0 | 11.0 | 0.00 | 0.00 | 0.00 | 36 | 1023.9 |
| 20260509104504 | 58 | 195 | 4.0 | 13.0 | 0.00 | 0.00 | 0.00 | 36 | 1024.0 |
| 20260509103603 | 58 | 199 | 4.0 | 11.0 | 0.00 | 0.00 | 0.00 | 33 | 1024.1 |
| 20260509102704 | 58 | 196 | 5.0 | 10.0 | 0.00 | 0.00 | 0.00 | 35 | 1024.1 |
| 20260509101803 | 58 | 165 | 6.0 | 15.0 | 0.00 | 0.00 | 0.00 | 35 | 1024.2 |
| 20260509100903 | 58 | 166 | 3.0 | 9.0 | 0.00 | 0.00 | 0.00 | 34 | 1024.3 |
| 20260509100005 | 58 | 176 | 6.0 | 14.0 | 0.00 | 0.00 | 0.00 | 33 | 1024.4 |
| 20260509095403 | 58 | 164 | 9.0 | 15.0 | 0.00 | 0.00 | 0.00 | 35 | 1024.4 |
| 20260509094504 | 59 | 165 | 8.0 | 15.0 | 0.00 | 0.00 | 0.00 | 35 | 1024.5 |
| 20260509093603 | 58 | 179 | 6.0 | 14.0 | 0.00 | 0.00 | 0.00 | 35 | 1024.5 |
| 20260509092704 | 58 | 170 | 9.0 | 19.0 | 0.00 | 0.00 | 0.00 | 33 | 1024.6 |
| 20260509091803 | 58 | 175 | 6.0 | 14.0 | 0.00 | 0.00 | 0.00 | 34 | 1024.6 |
| 20260509090903 | 58 | 170 | 8.0 | 19.0 | 0.00 | 0.00 | 0.00 | 35 | 1024.8 |
| 20260509090004 | 58 | 191 | 4.0 | 11.0 | 0.00 | 0.00 | 0.00 | 37 | 1024.8 |
| 20260509085403 | 58 | 187 | 5.0 | 14.0 | 0.00 | 0.00 | 0.00 | 38 | 1024.8 |
| 20260509084503 | 57 | 177 | 7.0 | 16.0 | 0.00 | 0.00 | 0.00 | 37 | 1025.0 |
| 20260509083625 | 57 | 165 | 8.0 | 16.0 | 0.00 | 0.00 | 0.00 | 36 | 1025.1 |
| 20260509082704 | 57 | 168 | 7.0 | 14.0 | 0.00 | 0.00 | 0.00 | 36 | 1025.2 |
| 20260509081804 | 57 | 182 | 5.0 | 14.0 | 0.00 | 0.00 | 0.00 | 36 | 1025.2 |
| 20260509080903 | 57 | 174 | 7.0 | 14.0 | 0.00 | 0.00 | 0.00 | 37 | 1025.3 |
| 20260509080025 | 56 | 169 | 8.0 | 15.0 | 0.00 | 0.00 | 0.00 | 36 | 1025.3 |
| 20260509075404 | 56 | 155 | 9.0 | 15.0 | 0.00 | 0.00 | 0.00 | 38 | 1025.3 |
| 20260509074525 | 56 | 163 | 8.0 | 17.0 | 0.00 | 0.00 | 0.00 | 37 | 1025.4 |
| 20260509073603 | 56 | 161 | 7.0 | 15.0 | 0.00 | 0.00 | 0.00 | 38 | 1025.5 |
| 20260509072704 | 55 | 166 | 8.0 | 16.0 | 0.00 | 0.00 | 0.00 | 37 | 1025.5 |
| 20260509071825 | 54 | 166 | 9.0 | 17.0 | 0.00 | 0.00 | 0.00 | 39 | 1025.6 |
| 20260509070903 | 54 | 167 | 11.0 | 18.0 | 0.00 | 0.00 | 0.00 | 39 | 1025.7 |
| 20260509070003 | 53 | 165 | 10.0 | 19.0 | 0.00 | 0.00 | 0.00 | 40 | 1025.6 |
| 20260509065453 | 53 | 164 | 9.0 | 16.0 | 0.00 | 0.00 | 0.00 | 41 | 1025.7 |
| 20260509064504 | 53 | 150 | 9.0 | 15.0 | 0.00 | 0.00 | 0.00 | 44 | 1025.7 |
| 20260509063625 | 52 | 151 | 8.0 | 14.0 | 0.00 | 0.00 | 0.00 | 45 | 1025.7 |
| 20260509062725 | 52 | 164 | 7.0 | 15.0 | 0.00 | 0.00 | 0.00 | 45 | 1025.8 |
| 20260509061804 | 51 | 168 | 8.0 | 15.0 | 0.00 | 0.00 | 0.00 | 48 | 1025.8 |
| 20260509060925 | 50 | 156 | 8.0 | 13.0 | 0.00 | 0.00 | 0.00 | 47 | 1025.9 |
| 20260509060004 | 50 | 156 | 8.0 | 13.0 | 0.00 | 0.00 | 0.00 | 47 | 1025.8 |
| 20260509055403 | 49 | 159 | 8.0 | 13.0 | 0.00 | 0.01 | 0.00 | 49 | 1025.8 |
| 20260509054524 | 48 | 151 | 7.0 | 11.0 | 0.00 | 0.01 | 0.00 | 52 | 1025.8 |
| 20260509053625 | 48 | 157 | 6.0 | 11.0 | 0.00 | 0.01 | 0.00 | 54 | 1025.8 |
| 20260509052704 | 47 | 163 | 6.0 | 10.0 | 0.00 | 0.01 | 0.00 | 57 | 1025.9 |
| 20260509050904 | 46 | 161 | 4.0 | 7.0 | 0.00 | 0.01 | 0.00 | 61 | 1025.6 |
| 20260509050004 | 46 | 158 | 4.0 | 7.0 | 0.00 | 0.01 | 0.00 | 60 | 1025.4 |
| 20260509045404 | 45 | 159 | 4.0 | 7.0 | 0.00 | 0.02 | 0.00 | 61 | 1025.9 |
| 20260509044504 | 44 | 155 | 3.0 | 5.0 | 0.00 | 0.02 | 0.00 | 62 | 1025.6 |
| 20260509043604 | 44 | 166 | 3.0 | 6.0 | 0.00 | 0.02 | 0.00 | 63 | 1025.6 |
| 20260509042703 | 42 | 164 | 3.0 | 5.0 | 0.00 | 0.02 | 0.00 | 64 | 1026.0 |
| 20260509041825 | 40 | 165 | 3.0 | 5.0 | 0.00 | 0.03 | 0.00 | 65 | 1026.0 |
| 20260509040925 | 39 | 147 | 2.0 | 5.0 | 0.00 | 0.03 | 0.00 | 67 | 1025.9 |
| 20260509040025 | 37 | 168 | 3.0 | 6.0 | 0.00 | 0.05 | 0.00 | 69 | 1025.0 |
| 20260509035404 | 36 | 172 | 2.0 | 6.0 | 0.00 | 0.05 | 0.00 | 71 | 1023.6 |
| 20260509034503 | 34 | 151 | 2.0 | 5.0 | 0.00 | 0.05 | 0.00 | 71 | 1026.3 |
| 20260509033624 | 34 | 152 | 2.0 | 4.0 | 0.00 | 0.05 | 0.00 | 71 | 1026.3 |
| 20260509032725 | 33 | 165 | 2.0 | 4.0 | 0.00 | 0.05 | 0.00 | 71 | 1026.2 |
| 20260509031824 | 33 | 163 | 3.0 | 5.0 | 0.00 | 0.05 | 0.00 | 72 | 1026.3 |
| 20260509030903 | 32 | 161 | 3.0 | 7.0 | 0.00 | 0.05 | 0.00 | 74 | 1026.3 |
| 20260509030004 | 31 | 171 | 2.0 | 6.0 | 0.00 | 0.05 | 0.00 | 75 | 1026.2 |
| 20260509025404 | 31 | 173 | 2.0 | 6.0 | 0.00 | 0.05 | 0.00 | 76 | 1026.3 |
| 20260509024503 | 30 | 173 | 1.0 | 6.0 | 0.00 | 0.05 | 0.00 | 76 | 1026.3 |
| 20260509023603 | 30 | 151 | 1.0 | 2.0 | 0.00 | 0.05 | 0.00 | 76 | 1026.4 |
| 20260509022703 | 30 | 151 | 0.0 | 2.0 | 0.00 | 0.05 | 0.00 | 76 | 1026.3 |
| 20260509021803 | 30 | 151 | 0.0 | 2.0 | 0.00 | 0.05 | 0.00 | 77 | 1026.3 |
| 20260509020903 | 30 | 151 | 0.0 | 1.0 | 0.00 | 0.05 | 0.00 | 77 | 1026.3 |
| 20260509020024 | 30 | 151 | 0.0 | 1.0 | 0.00 | 0.05 | 0.00 | 77 | 1026.2 |
| 20260509015403 | 30 | 187 | 1.0 | 4.0 | 0.00 | 0.05 | 0.00 | 77 | 1026.3 |
| 20260509014524 | 29 | 206 | 0.0 | 4.0 | 0.00 | 0.05 | 0.00 | 78 | 1026.4 |
| 20260509013604 | 30 | 200 | 0.0 | 2.0 | 0.00 | 0.05 | 0.00 | 78 | 1026.4 |
| 20260509012724 | 30 | 0 | 0.0 | 0.0 | 0.00 | 0.05 | 0.00 | 78 | 1026.4 |
| 20260509011804 | 30 | 120 | 0.0 | 1.0 | 0.00 | 0.05 | 0.00 | 78 | 1026.4 |
| 20260509010903 | 30 | 50 | 0.0 | 3.0 | 0.00 | 0.05 | 0.00 | 77 | 1026.3 |
| 20260509010004 | 30 | 335 | 0.0 | 3.0 | 0.00 | 0.05 | 0.00 | 77 | 1026.3 |
| 20260509005403 | 30 | 335 | 0.0 | 3.0 | 0.00 | 0.05 | 0.00 | 77 | 1026.3 |
| 20260509004524 | 30 | 335 | 0.0 | 1.0 | 0.00 | 0.05 | 0.00 | 77 | 1026.3 |
| 20260509003604 | 30 | 335 | 0.0 | 2.0 | 0.00 | 0.05 | 0.00 | 77 | 1026.4 |
| 20260509002725 | 30 | 335 | 0.0 | 2.0 | 0.00 | 0.05 | 0.00 | 78 | 1026.3 |
| 20260509001803 | 29 | 335 | 0.0 | 2.0 | 0.00 | 0.05 | 0.00 | 79 | 1026.3 |
| 20260509000904 | 30 | 335 | 1.0 | 3.0 | 0.00 | 0.05 | 0.00 | 78 | 1026.4 |
| 20260509000025 | 30 | 335 | 0.0 | 2.0 | 0.00 | 0.05 | 0.00 | 77 | 1026.4 |
| 20260508235404 | 30 | 0 | 0.0 | 0.0 | 0.00 | 0.05 | 0.00 | 78 | 1026.4 |
| 20260508234504 | 31 | 0 | 0.0 | 0.0 | 0.00 | 0.05 | 0.00 | 76 | 1026.3 |
| 20260508233603 | 31 | 0 | 0.0 | 0.0 | 0.00 | 0.05 | 0.00 | 77 | 1026.3 |
| 20260508232724 | 31 | 0 | 0.0 | 0.0 | 0.00 | 0.05 | 0.00 | 77 | 1026.3 |
| 20260508231803 | 31 | 0 | 0.0 | 0.0 | 0.00 | 0.05 | 0.00 | 76 | 1026.3 |
| 20260508230904 | 31 | 0 | 0.0 | 0.0 | 0.00 | 0.05 | 0.00 | 77 | 1026.3 |
| 20260508230003 | 31 | 0 | 0.0 | 0.0 | 0.00 | 0.05 | 0.00 | 76 | 1026.3 |
| 20260508225404 | 31 | 0 | 0.0 | 0.0 | 0.00 | 0.05 | 0.00 | 76 | 1026.3 |
| 20260508224503 | 31 | 0 | 0.0 | 0.0 | 0.00 | 0.05 | 0.00 | 76 | 1026.3 |
| 20260508223603 | 31 | 0 | 0.0 | 0.0 | 0.00 | 0.05 | 0.00 | 76 | 1026.2 |
| 20260508222724 | 31 | 0 | 0.0 | 0.0 | 0.00 | 0.05 | 0.00 | 76 | 1026.2 |
| 20260508221803 | 31 | 0 | 0.0 | 0.0 | 0.00 | 0.05 | 0.00 | 76 | 1026.3 |
| 20260508220904 | 31 | 0 | 0.0 | 0.0 | 0.00 | 0.05 | 0.00 | 75 | 1026.3 |
| 20260508220003 | 32 | 0 | 0.0 | 0.0 | 0.00 | 0.05 | 0.00 | 75 | 1026.2 |
| 20260508215403 | 32 | 0 | 0.0 | 0.0 | 0.00 | 0.05 | 0.00 | 74 | 1026.2 |
| 20260508214503 | 32 | 0 | 0.0 | 0.0 | 0.00 | 0.05 | 0.00 | 75 | 1026.2 |
| 20260508213603 | 33 | 335 | 0.0 | 2.0 | 0.00 | 0.05 | 0.00 | 75 | 1026.2 |
| 20260508212703 | 33 | 335 | 0.0 | 2.0 | 0.00 | 0.05 | 0.00 | 74 | 1026.1 |
| 20260508211804 | 33 | 335 | 1.0 | 2.0 | 0.00 | 0.05 | 0.00 | 74 | 1026.0 |
| 20260508210903 | 34 | 335 | 1.0 | 3.0 | 0.00 | 0.05 | 0.00 | 73 | 1026.0 |
| 20260508210004 | 34 | 335 | 1.0 | 3.0 | 0.00 | 0.05 | 0.00 | 74 | 1025.9 |
| 20260508205404 | 33 | 335 | 0.0 | 2.0 | 0.00 | 0.05 | 0.05 | 77 | 1025.8 |
| 20260508204503 | 32 | 335 | 0.0 | 1.0 | 0.00 | 0.05 | 0.05 | 76 | 1025.8 |
| 20260508203603 | 34 | 335 | 1.0 | 2.0 | 0.00 | 0.05 | 0.05 | 74 | 1025.8 |
| 20260508202724 | 35 | 335 | 2.0 | 3.0 | 0.00 | 0.05 | 0.05 | 73 | 1025.7 |
| 20260508201803 | 35 | 335 | 3.0 | 3.0 | 0.00 | 0.05 | 0.05 | 72 | 1025.7 |
| 20260508200904 | 35 | 335 | 3.0 | 3.0 | 0.00 | 0.05 | 0.05 | 71 | 1025.6 |
| 20260508200004 | 35 | 335 | 2.0 | 3.0 | 0.00 | 0.06 | 0.05 | 71 | 1025.6 |
| 20260508195403 | 36 | 335 | 2.0 | 3.0 | 0.00 | 0.06 | 0.05 | 71 | 1025.5 |
| 20260508194503 | 36 | 335 | 2.0 | 3.0 | 0.00 | 0.08 | 0.05 | 69 | 1025.3 |
| 20260508193603 | 35 | 335 | 3.0 | 5.0 | 0.00 | 0.10 | 0.05 | 72 | 1025.2 |
| 20260508192703 | 34 | 328 | 4.0 | 5.0 | 0.00 | 0.12 | 0.05 | 73 | 1025.1 |
| 20260508191804 | 36 | 315 | 3.0 | 4.0 | 0.00 | 0.14 | 0.05 | 70 | 1025.0 |
| 20260508190903 | 37 | 315 | 3.0 | 4.0 | 0.00 | 0.15 | 0.05 | 68 | 1025.0 |
| 20260508190025 | 38 | 315 | 3.0 | 4.0 | 0.00 | 0.15 | 0.05 | 64 | 1025.0 |
| 20260508185424 | 38 | 315 | 2.0 | 3.0 | 0.00 | 0.16 | 0.05 | 64 | 1024.9 |
| 20260508184504 | 38 | 315 | 2.0 | 3.0 | 0.00 | 0.16 | 0.05 | 64 | 1024.8 |
| 20260508183604 | 39 | 315 | 2.0 | 3.0 | 0.00 | 0.16 | 0.05 | 64 | 1024.6 |
| 20260508182703 | 39 | 315 | 2.0 | 3.0 | 0.00 | 0.17 | 0.05 | 63 | 1024.6 |
| 20260508181824 | 40 | 315 | 2.0 | 3.0 | 0.00 | 0.17 | 0.05 | 62 | 1024.5 |
| 20260508180904 | 42 | 315 | 3.0 | 3.0 | 0.00 | 0.18 | 0.05 | 60 | 1024.5 |
| 20260508180003 | 44 | 315 | 3.0 | 4.0 | 0.00 | 0.19 | 0.05 | 57 | 1024.5 |
| 20260508175403 | 45 | 315 | 2.0 | 4.0 | 0.00 | 0.20 | 0.05 | 54 | 1024.5 |
| 20260508174503 | 47 | 315 | 2.0 | 5.0 | 0.00 | 0.23 | 0.05 | 47 | 1024.4 |
| 20260508173603 | 49 | 317 | 4.0 | 6.0 | 0.00 | 0.23 | 0.05 | 43 | 1024.3 |